Location: A�t Bou Chrif
(32.7193°N, 5.2385°W)
Time: 00:25:34
(UTC+00:00)

NOSS 3-2 (A) - Pass Details

Date: 08 August 2020
Orbit: 796 x 1412 km, 63.4° (Epoch: 16 September)

Event Time Altitude Azimuth Distance (km) Brightness Sun altitude
Exits shadow 21:23:41 22° 205° (SSW) 1,728 4.6 -24.7°
Maximum altitude 21:27:21 84° 119° (ESE) 863 3.1 -25.3°
Drops below altitude 10° 21:33:26 10° 31° (NNE) 2,649 5.9 -26.2°
Sets 21:36:08 0° 31° (NNE) 3,685 6.7 -26.7°
